{"data":{"norad_id":84188,"intl_designator":"","name":"UNKNOWN","alt_names":[],"object_type":"UNKNOWN","status":"UNKNOWN","operator":null,"country":null,"launch_date":null,"launch_site_code":null,"launch_vehicle":null,"mission":null,"orbit_class":"UNKNOWN","rcs_meters":null,"size_class":null,"mass_kg":null,"dimensions":null,"purposes":[],"wikipedia_slug":null,"has_3d_model":false,"image_url":null,"decayed_at":null,"tle_current":{"epoch":"2026-05-27T22:33:57.723552Z","epoch_age_seconds":10002682,"freshness":"OLD","line1":"1 84188U          26147.94025143  .00721688  00000+0  23953+0 0  9999","line2":"2 84188  65.1309  99.9710 3291825 358.3090   0.8489  8.51195313 54620","mean_motion":8.51195313,"eccentricity":0.3291825,"inclination_deg":65.1309,"raan_deg":99.971,"arg_perigee_deg":358.309,"mean_anomaly_deg":0.8489,"bstar":0.23953,"rev_number":5462,"period_min":169.17386386031,"perigee_km":418.90691787737,"apogee_km":7089.7761468306,"semimajor_km":10132.478532354,"source":"CELESTRAK","updated_at":"2026-06-26T09:00:23.716019Z"}}}